7 * 24
多渠道服务支持
STARLINK-37712是美国SpaceX公司星链星座的组网卫星,对应NORAD编号100109,属于低轨通信卫星序列。这类卫星通常部署在480-570公里近地轨道,单星质量约300kg,搭载激光星间链路,可提供低时延、广覆盖的宽带通信服务,支持偏远地区、移动场景的互联网接入,截至2026年随星链星座为全球130余个国家和地区提供服务。当前SpaceX正推进星链轨道调整,该类型卫星若处于550公里轨道,将按计划降轨至480公里,以降低太空碰撞风险,退役后可在数月内再入大气层焚毁。
美国
(US)
| 数据来源 | 国际轨道数据 |
| 星历时间: | 2026-09-14T21:38:53+0800 1天前 查看轨道信息 |
| 半长轴: | 6722.281km |
| 偏心率: | 0.0000753 |
| 轨道倾角: | 97.282° |
| 近地点辐角 | 132.871° |
| 升交点赤经 | 275.687° |
| 平近点角 | 227.262° |
| 近地点: | 343.637km |
| 远地点: | 344.651km |
| 周期: | 91.419分钟 |
| 每日圈数: | 15.751714 |